[[{"header":{"parameterUnit":"m.s-1","parameterCategory":1,"la1":30.2991,"la2":30.254,"lo1":-89.0895,"lo2":-89.0444,"dy":0.0017,"dx":0.0017,"nx":28,"ny":28,"refTime":"2024-04-20T09:00:00:Z","depth":0,"parameterNumber":2,"parameterNumberName":"U-component_of_WINDS"},"data":[0,0,0,0,0,0,0,0,0,0,0,0,0,0,0,0,0,0,0,0,0,0,0,0,0,0,0,0,0,0,0,0,0,0,0,0,0,0,0,0,0,0,0,0,0,0,0,0,0,0,0,0,0,0,0,0,0,0,-1.5635,-1.5635,0,-1.5647,-1.5647,-1.5647,-1.5587,-1.5585,-1.5584,-1.5582,-1.5597,-1.5598,-1.56,0,0,0,0,0,0,0,0,0,0,0,0,0,-1.556,-1.5561,-1.5635,-1.5635,-1.5635,-1.5647,-1.5647,-1.5647,-1.5587,-1.5585,-1.5583,-1.5581,-1.5596,-1.5598,-1.5601,0,0,0,0,0,0,0,0,0,0,0,0,0,-1.5584,-1.5562,-1.5635,-1.5606,-1.5604,-1.5647,-1.5647,-1.5647,-1.5588,-1.5585,-1.5583,-1.558,-1.5595,-1.5598,-1.5601,-1.5672,0,0,-1.561,-1.5612,0,0,0,0,0,0,0,0,-1.5583,-1.5587,-1.561,-1.5608,-1.5606,-1.5613,-1.5626,-1.5656,-1.5589,-1.5594,-1.5582,-1.5579,-1.5604,-1.5606,-1.5614,-1.5673,-1.5673,-1.561,-1.5612,-1.5614,-1.5614,0,0,0,0,0,0,0,-1.5581,-1.5586,-1.564,-1.5611,-1.5608,-1.5593,-1.5594,-1.5631,-1.5614,-1.5593,-1.5589,-1.5591,-1.5602,-1.5612,-1.5614,-1.5674,-1.561,-1.5613,-1.5615,-1.5616,-1.579,-1.5793,0,0,0,0,0,0,-1.5583,-1.5585,-1.5639,-1.564,-1.5588,-1.5597,-1.5597,-1.5613,-1.5613,-1.5611,-1.5593,-1.5588,-1.5608,-1.5611,-1.5615,-1.5697,-1.5614,-1.5616,-1.5618,-1.5787,-1.5791,-1.5794,0,0,0,0,0,0,-1.5582,-1.5588,-1.5639,-1.5611,-1.5617,-1.5601,-1.5619,-1.5615,-1.5624,-1.5613,-1.561,-1.5606,-1.5606,-1.561,-1.5658,-1.5697,-1.5618,-1.5621,-1.5784,-1.5788,-1.5792,-1.5864,0,0,0,0,0,0,-1.558,-1.5588,-1.5615,-1.5612,-1.5618,-1.5682,-1.5621,-1.5617,-1.5629,-1.5623,-1.5624,-1.5622,-1.5604,-1.5654,-1.5661,-1.57,-1.5623,-1.578,-1.5786,-1.5791,-1.5858,-1.587,-1.5881,0,0,0,0,0,-1.5577,-1.5636,-1.5617,-1.5624,-1.5651,-1.5684,-1.5688,-1.5666,-1.5633,-1.566,-1.5652,-1.5622,-1.5691,-1.5659,-1.5667,-1.5707,-1.5778,-1.5784,-1.579,-1.5853,-1.5868,-1.588,0,0,0,0,0,0,-1.5645,-1.5635,-1.5614,-1.5673,-1.568,-1.5674,-1.5707,-1.5682,-1.5699,-1.5692,-1.5664,-1.5665,-1.5717,-1.5717,-1.5681,-1.5775,-1.5729,-1.5737,-1.5774,-1.5788,-1.5799,-1.5798,-1.5625,0,0,0,0,0,-1.5666,-1.5693,-1.5683,-1.5736,-1.5741,-1.5724,-1.5737,-1.5719,-1.5725,-1.5728,-1.5724,-1.5732,-1.5755,-1.5772,-1.5793,-1.5857,-1.5857,-1.5889,-1.59,-1.5909,-1.5917,-1.5951,-1.5965,-1.5814,-1.5814,-1.5814,0,0,-1.5711,-1.5709,-1.5728,-1.575,-1.5753,-1.5782,-1.5726,-1.576,-1.5781,-1.5733,-1.5778,-1.5775,-1.5782,-1.5838,-1.5863,-1.5839,-1.5958,-1.5917,-1.5925,-1.5927,-1.5959,-1.5973,-1.5986,-1.5819,-1.5818,-1.5817,0,0,-1.5808,-1.5809,-1.5853,-1.5857,-1.5862,-1.585,-1.5861,-1.5859,-1.5855,-1.5899,-1.5864,-1.5888,-1.5929,-1.5935,-1.5944,-1.6041,-1.6014,-1.6049,-1.6108,-1.6141,-1.6153,-1.6163,-1.6198,-1.6211,-1.6056,-1.6056,-1.6057,0,-1.5864,-1.5905,-1.5879,-1.5914,-1.5925,-1.5882,-1.5926,-1.5931,-1.5944,-1.5952,-1.5925,-1.5975,-1.5976,-1.6033,-1.6057,-1.6065,-1.6076,-1.6049,-1.6153,-1.6163,-1.6173,-1.6205,-1.6219,-1.6061,-1.606,-1.606,-1.6059,0,-1.5973,-1.6003,-1.6038,-1.6049,-1.6064,-1.6103,-1.6083,-1.6101,-1.6081,-1.6072,-1.6117,-1.6117,-1.6137,-1.6149,-1.6131,-1.6203,-1.6188,-1.6158,-1.6111,-1.6192,-1.6222,-1.6234,-1.6067,-1.6065,-1.6064,-1.6063,0,0,-1.6115,-1.611,-1.6123,-1.6128,-1.6129,-1.6152,-1.6189,-1.6208,-1.6223,-1.6233,-1.6263,-1.6298,-1.627,-1.6279,-1.6261,-1.629,-1.6367,-1.6256,-1.6256,-1.6277,-1.6446,-1.647,-1.6485,-1.6348,-1.6351,-1.6352,-1.6446,0,-1.6209,-1.6273,-1.6249,-1.6314,-1.6341,-1.63,-1.6332,-1.6337,-1.6329,-1.6351,-1.6342,-1.6367,-1.6327,-1.6333,-1.636,-1.6352,-1.6401,-1.6345,-1.6377,-1.6378,-1.6377,-1.6501,-1.6525,-1.6614,-1.6458,-1.646,-1.6461,0,-1.6329,-1.6342,-1.6409,-1.6405,-1.6416,-1.6445,-1.646,-1.6481,-1.6485,-1.6477,-1.6487,-1.6462,-1.6499,-1.6451,-1.65,-1.6463,-1.6474,-1.6472,-1.6475,-1.6478,-1.6425,-1.6507,-1.6641,-1.6655,-1.648,-1.6478,-1.6477,0,-1.6425,-1.646,-1.6504,-1.6509,-1.6506,-1.6527,-1.6527,-1.6528,-1.6541,-1.6554,-1.6561,-1.6578,-1.6588,-1.6602,-1.6582,-1.6549,-1.6635,-1.6585,-1.6629,-1.663,-1.665,-1.6649,-1.6789,-1.6657,-1.6657,-1.6657,-1.6656,0,-1.6534,-1.6577,-1.6547,-1.6575,-1.6621,-1.6594,-1.6641,-1.6636,-1.6637,-1.6663,-1.6629,-1.6654,-1.6626,-1.6648,-1.6633,-1.6676,-1.6681,-1.6676,-1.6671,-1.6679,-1.668,-1.6687,-1.668,-1.666,-1.6659,-1.6659,-1.6658,0,-1.665,-1.6631,-1.6677,-1.667,-1.6669,-1.6703,-1.6697,-1.6722,-1.6711,-1.6744,-1.675,-1.6733,-1.6758,-1.6739,-1.6764,-1.6753,-1.681,-1.6797,-1.6809,-1.6805,-1.685,-1.6847,-1.7,-1.7018,-1.6875,-1.6876,-1.6877,0,-1.672,-1.6752,-1.6748,-1.6762,-1.6764,-1.6787,-1.6799,-1.6773,-1.6787,-1.6794,-1.6818,-1.6839,-1.6855,-1.6896,-1.6886,-1.6904,-1.6891,-1.6944,-1.6894,-1.6901,-1.6892,-1.6891,-1.6894,-1.6954,-1.6956,-1.6957,-1.6958,0,-1.6848,-1.6837,-1.6855,-1.687,-1.6885,-1.6896,-1.6904,-1.6918,-1.6891,-1.6909,-1.6933,-1.6945,-1.6969,-1.6991,-1.7005,-1.7005,-1.6978,-1.6974,-1.6985,-1.6994,-1.6999,-1.6997,-1.6837,-1.6971,-1.697,-1.6969,-1.6968,-1.6967,-1.6943,-1.6969,-1.697,-1.6991,-1.6994,-1.7002,-1.7025,-1.7016,-1.7036,-1.7053,-1.7036,-1.7065,-1.7068,-1.7084,-1.7087,-1.711,-1.7088,-1.7104,-1.7108,-1.7113,-1.7119,-1.6995,-1.7112,-1.7112,-1.7111,-1.7111,-1.7111,0,-1.7069,-1.7067,-1.7087,-1.7099,-1.7115,-1.7087,-1.7094,-1.711,-1.7136,-1.714,-1.7155,-1.7183,-1.7203,-1.7194,-1.7212,-1.7232,-1.722,-1.7237,-1.7236,-1.7236,-1.7138,-1.7126,-1.7247,-1.7247,-1.7247,-1.7247,-1.7247,-1.7247,-1.7137,-1.7179,-1.7168,-1.7211,-1.7209,-1.7236,-1.7243,-1.725,-1.7253,-1.7285,-1.7301,-1.7295,-1.7294,-1.7311,-1.7328,-1.7325,-1.7333,-1.7356,-1.7348,-1.7257,-1.7243,-1.723,-1.722,-1.7358,-1.7358,-1.7445,-1.7446,-1.7446]},{"header":{"parameterUnit":"m.s-1","parameterCategory":1,"la1":30.2991,"la2":30.254,"lo1":-89.0895,"lo2":-89.0444,"dy":0.0017,"dx":0.0017,"nx":28,"ny":28,"refTime":"2024-04-20T09:00:00:Z","depth":0,"parameterNumber":3,"parameterNumberName":"V-component_of_WINDS"},"data":[0,0,0,0,0,0,0,0,0,0,0,0,0,0,0,0,0,0,0,0,0,0,0,0,0,0,0,0,0,0,0,0,0,0,0,0,0,0,0,0,0,0,0,0,0,0,0,0,0,0,0,0,0,0,0,0,0,0,-7.7671,-7.7672,0,-7.772,-7.772,-7.7721,-7.761,-7.7607,-7.7603,-7.76,-7.7645,-7.7649,-7.7653,0,0,0,0,0,0,0,0,0,0,0,0,0,-7.7477,-7.7481,-7.7671,-7.7672,-7.7672,-7.772,-7.772,-7.7721,-7.7611,-7.7607,-7.7602,-7.7598,-7.7643,-7.7648,-7.7654,0,0,0,0,0,0,0,0,0,0,0,0,0,-7.7547,-7.7482,-7.7671,-7.7623,-7.7619,-7.772,-7.7721,-7.7721,-7.7612,-7.7606,-7.7601,-7.7596,-7.7641,-7.7648,-7.7654,-7.7802,0,0,-7.7675,-7.7678,0,0,0,0,0,0,0,0,-7.7543,-7.7554,-7.763,-7.7627,-7.7623,-7.7654,-7.7668,-7.7748,-7.7613,-7.7615,-7.76,-7.7594,-7.7652,-7.7657,-7.7678,-7.7804,-7.7806,-7.7676,-7.768,-7.7683,-7.7684,0,0,0,0,0,0,0,-7.7538,-7.7551,-7.769,-7.7631,-7.7627,-7.7597,-7.7602,-7.7683,-7.7662,-7.7614,-7.7606,-7.7614,-7.7648,-7.7671,-7.7678,-7.7806,-7.7675,-7.7681,-7.7685,-7.7688,-7.8056,-7.8061,0,0,0,0,0,0,-7.754,-7.7548,-7.7689,-7.7692,-7.7569,-7.7605,-7.761,-7.7649,-7.7661,-7.7658,-7.7618,-7.7608,-7.7663,-7.767,-7.7679,-7.7853,-7.7682,-7.7689,-7.7693,-7.805,-7.8057,-7.8063,0,0,0,0,0,0,-7.7537,-7.7554,-7.7687,-7.7618,-7.7633,-7.7614,-7.7659,-7.7653,-7.7676,-7.7664,-7.7659,-7.7646,-7.7659,-7.767,-7.7772,-7.7852,-7.7692,-7.7698,-7.8043,-7.8052,-7.806,-7.8201,0,0,0,0,0,0,-7.7532,-7.7553,-7.7611,-7.762,-7.7637,-7.7781,-7.7664,-7.7657,-7.7688,-7.7676,-7.7689,-7.7686,-7.7655,-7.7763,-7.7779,-7.7859,-7.7703,-7.8036,-7.8047,-7.8058,-7.8189,-7.8213,-7.8234,0,0,0,0,0,-7.7525,-7.7647,-7.7614,-7.7632,-7.7708,-7.7786,-7.7795,-7.776,-7.7695,-7.7751,-7.7744,-7.7685,-7.7841,-7.7775,-7.7792,-7.7875,-7.8031,-7.8044,-7.8057,-7.8179,-7.8209,-7.8234,0,0,0,0,0,0,-7.7645,-7.7647,-7.7611,-7.774,-7.7764,-7.7767,-7.7838,-7.7792,-7.7834,-7.782,-7.7772,-7.7776,-7.7888,-7.7891,-7.7817,-7.8018,-7.7925,-7.7942,-7.8012,-7.804,-7.8062,-7.8059,-7.7709,0,0,0,0,0,-7.7687,-7.7752,-7.775,-7.7864,-7.7878,-7.7856,-7.7889,-7.7859,-7.7882,-7.7891,-7.789,-7.7913,-7.7967,-7.8003,-7.8052,-7.8189,-7.819,-7.8254,-7.8277,-7.8295,-7.8311,-7.8383,-7.8412,-7.8106,-7.8106,-7.8105,0,0,-7.7773,-7.7782,-7.7826,-7.7888,-7.7903,-7.797,-7.7865,-7.794,-7.7989,-7.7901,-7.7999,-7.8,-7.8022,-7.8143,-7.8196,-7.8149,-7.8395,-7.8312,-7.8327,-7.8332,-7.8399,-7.8428,-7.8454,-7.8115,-7.8113,-7.8112,0,0,-7.7965,-7.7979,-7.8076,-7.8094,-7.8119,-7.8104,-7.8127,-7.8138,-7.8136,-7.8234,-7.8169,-7.8226,-7.832,-7.8338,-7.836,-7.8559,-7.8507,-7.8576,-7.8694,-7.8765,-7.8789,-7.881,-7.8882,-7.8908,-7.8592,-7.8592,-7.8592,0,-7.8069,-7.8169,-7.8131,-7.8211,-7.824,-7.8166,-7.8262,-7.8281,-7.832,-7.8341,-7.8288,-7.8405,-7.8414,-7.8538,-7.8587,-7.8607,-7.8632,-7.8575,-7.8789,-7.881,-7.8829,-7.8897,-7.8924,-7.86,-7.8599,-7.8598,-7.8598,0,-7.8296,-7.8366,-7.8441,-7.8484,-7.852,-7.8609,-7.8582,-7.8624,-7.8591,-7.8581,-7.8681,-7.869,-7.874,-7.8766,-7.8734,-7.8886,-7.8856,-7.8798,-7.8703,-7.8867,-7.893,-7.8955,-7.8612,-7.8609,-7.8607,-7.8605,0,0,-7.8564,-7.8585,-7.8613,-7.8632,-7.8655,-7.8707,-7.8792,-7.8842,-7.8879,-7.8908,-7.8977,-7.9059,-7.9005,-7.9029,-7.8998,-7.9061,-7.9219,-7.8994,-7.8994,-7.9036,-7.9387,-7.9431,-7.9462,-7.9184,-7.9189,-7.9193,-7.9385,0,-7.8754,-7.8902,-7.887,-7.9014,-7.9079,-7.9009,-7.9082,-7.9103,-7.9096,-7.9148,-7.9139,-7.9198,-7.9122,-7.9136,-7.9195,-7.9188,-7.9289,-7.9173,-7.9247,-7.925,-7.9244,-7.9495,-7.9542,-7.9723,-7.9409,-7.9413,-7.9416,0,-7.8996,-7.9038,-7.9189,-7.9202,-7.9228,-7.9295,-7.9339,-7.939,-7.9412,-7.9402,-7.943,-7.9387,-7.9469,-7.9374,-7.9486,-7.9408,-7.9436,-7.9437,-7.9443,-7.9449,-7.9343,-7.9507,-7.9779,-7.9807,-7.9454,-7.9451,-7.9448,0,-7.9178,-7.9271,-7.9374,-7.9391,-7.9409,-7.9458,-7.9467,-7.9484,-7.9516,-7.9554,-7.9574,-7.962,-7.9645,-7.9681,-7.9651,-7.9585,-7.9768,-7.967,-7.9761,-7.9762,-7.9803,-7.9801,-8.0084,-7.9821,-7.9821,-7.982,-7.982,0,-7.9394,-7.9489,-7.9456,-7.9519,-7.9624,-7.9585,-7.9689,-7.9689,-7.9705,-7.9766,-7.9707,-7.9765,-7.9722,-7.9776,-7.9753,-7.9849,-7.9861,-7.9855,-7.9847,-7.986,-7.9861,-7.9878,-7.9865,-7.9827,-7.9826,-7.9824,-7.9823,0,-7.9614,-7.9596,-7.9703,-7.9712,-7.9716,-7.9793,-7.9799,-7.9857,-7.9845,-7.9923,-7.9939,-7.9921,-7.9982,-7.9956,-8.0019,-8.0003,-8.0127,-8.0102,-8.012,-8.0114,-8.0207,-8.0199,-8.0511,-8.055,-8.0262,-8.0265,-8.0267,0,-7.9753,-7.9826,-7.9843,-7.9881,-7.9895,-7.9956,-7.9989,-7.9953,-7.999,-8.0021,-8.0075,-8.0131,-8.0174,-8.0274,-8.0265,-8.0313,-8.029,-8.0396,-8.0296,-8.0307,-8.0292,-8.0288,-8.0295,-8.0416,-8.0419,-8.0422,-8.0424,0,-8.0003,-7.999,-8.0042,-8.0092,-8.0134,-8.017,-8.0201,-8.0235,-8.02,-8.0244,-8.0307,-8.034,-8.0406,-8.0462,-8.0504,-8.0511,-8.0462,-8.0456,-8.0479,-8.0493,-8.0501,-8.0498,-8.0175,-8.0449,-8.0446,-8.0444,-8.0443,-8.0442,-8.0187,-8.0248,-8.027,-8.033,-8.035,-8.038,-8.0436,-8.0432,-8.0484,-8.0536,-8.0511,-8.0584,-8.0603,-8.0655,-8.0669,-8.0724,-8.0682,-8.0716,-8.0725,-8.0734,-8.0747,-8.0492,-8.0731,-8.0731,-8.073,-8.0729,-8.0729,0,-8.0434,-8.0445,-8.05,-8.0547,-8.0594,-8.0545,-8.0577,-8.0619,-8.0684,-8.0707,-8.0751,-8.0823,-8.0877,-8.0873,-8.0922,-8.0967,-8.0946,-8.0981,-8.0977,-8.098,-8.0781,-8.0756,-8.0998,-8.0998,-8.0998,-8.0997,-8.0997,-8.0997,-8.0568,-8.0669,-8.0659,-8.0769,-8.0779,-8.0851,-8.0874,-8.0901,-8.0919,-8.1003,-8.1048,-8.1046,-8.1058,-8.1108,-8.1155,-8.1152,-8.1173,-8.1217,-8.1206,-8.102,-8.0994,-8.0968,-8.0945,-8.1222,-8.1222,-8.14,-8.1402,-8.1403]}]]